FENGYUN 1C DEB

Satellite information

Favourite Embed

Satellite Type and Status

DEBRISIN ORBIT

Key statistics

Satellite FENGYUN 1C DEB at a glance.

Uptime

9715

Days in orbit

Revolutions

≈ 11.9

Per day

Orbit

MEO

Medium Earth Orbit

Inclination

98.9

Latest

Satellite identification and parameters

Extended collection of information and parameters for FENGYUN 1C DEB.

Object identification

Identified? True

Debris? True

Object name: FENGYUN 1C DEB

International designator: 1999-025EJW

Object number (NORAD): 37476

Object ID (CCSDS): 37476

Country: PEOPLES REPUBLIC OF CHINA (PRC)

Current information (Y/N): Y

RCS size: SMALL

Orbital parameters

Period: 120.912 minutes

Inclination: 98.9482 deg

SMA: 8099.778 km

Apoapsis: 2592.766 km

Periapsis: 850.52 km

RAAN: 339.4518 deg

Eccentricy: 0.10754901

Argument of periapsis: 313.9315 deg

Mean anomaly: 37.7694 deg

Mean motion: 11.90948869 rev/day

Mean motion (dot): 0.00001995 rev/day2

B* drag term: 0.0053126848 1/REarth

Two-line elements (TLE)

Creation date: Oct. 28, 2025, 7:11 p.m.

Reference frame: TEME

Reference center: EARTH

Epoch: Oct. 28, 2025, 8:39 a.m. UTC

TLE line 0: 0 FENGYUN 1C DEB

TLE line 1: 1 37476U 99025EJW 25301.36052476 .00001995 00000-0 53127-2 0 9990

TLE line 2: 2 37476 98.9482 339.4518 1075490 313.9315 37.7694 11.90948869669038

Live tracking on map

Real-time ground track for satellite FENGYUN 1C DEB.

In-orbit conjunctions

A list of the most updated potential collisions computed for object FENGYUN 1C DEB.

Target Orbit TCA Probability of collision Miss distance Type
EXPLORER 22 LEO 2025-01-22 13:26:00 0.0001667471 228.0 (m) PAYLOAD

Associated space launch

Chinese polar orbiting meteorological satellite

FENGYUN 1C DEB was lifted into orbit during the mission ‘Long March 4B | Feng Yun 1C’, on board a Long March 4B space rocket.

The launch took place on May 10, 1999, 1:33 a.m. from Launch Complex 7.

For more information about the launch, click the button.

Launch to space Long March 4B | Feng Yun 1C
Long March 4B | Feng Yun 1C

Agency: N/A

Status: Launch Successful

Launch date: May 10, 1999, 1:33 a.m. UTC

Rocket: Long March 4B

Launch pad: Launch Complex 7

Location: Taiyuan Satellite Launch Center, People's Republic of China

...

Latest news about this satellite

There are no fresh news available about this satellite. Check back as we update our databases every day.


Newsletter sign-up

Weekly statistics, charts and insights to help you stay on top of the space industry.